Cheboygan, MI

7:56 AM EDT on June 24, 2017 (GMT -0400)
Cheboygan

Weather History for KSLH - January, 2013

Change the Weather History Date:

Saturday, January 12, 2013

  Actual Average (KMCD) Record (KMCD)
Temperature  
Mean Temperature 44 °F -  
Max Temperature 52 °F 22 °F 49 °F (2013)
Min Temperature 35 °F 12 °F -2 °F (1981)
Degree Days  
Heating Degree Days 22    
Moisture  
Dew Point 37 °F    
Average Humidity 84    
Maximum Humidity 100    
Minimum Humidity 58    
Precipitation  
Precipitation 0.00 in - - ()
Sea Level Pressure  
Sea Level Pressure 29.71 in    
Wind  
Wind Speed 8 mph (SSW)    
Max Wind Speed 24 mph    
Max Gust Speed 40 mph    
Visibility 9 miles    
Events      
Averages and records for this station are not official NWS values.
T = Trace of Precipitation, MM = Missing Value Source: NWS Daily Summary

Daily Weather History Graph

Daily Weather History Graph

Search for Another Location

Airport or City:

Trip Planner

Search our weather history database for the weather conditions in past years. The results will help you decide how hot, cold, wet, or windy it might be!

Date:

Astronomy

Jan. 12, 2013 Rise Set
Actual Time 8:16 AM EST 5:17 PM EST
Civil Twilight 7:42 AM EST 5:50 PM EST
Nautical Twilight 7:05 AM EST 6:27 PM EST
Astronomical Twilight 6:30 AM EST 7:03 PM EST
Moon 8:29 AM EST (1/12) 6:51 PM EST (1/12)
Length of Visible Light 10h 07m
Length of Day
9h 00m
New Moon, 1% of the Moon is Illuminated
Jan 12
New Moon
Jan 18
First Quarter
Jan 26
Full
Feb 3
Last Quarter
Feb 10
New

Hourly Weather History & Observations

Time (EST) Temp. Windchill Dew Point Humidity Pressure Visibility Wind Dir Wind Speed Gust Speed Precip Events Conditions
12:15 AM 41.4 °F 39.4 °F 41.4 °F 100% 29.69 in 2.5 mi SE 3.5 mph - N/A   Overcast
12:36 AM 40.3 °F 37.1 °F 40.3 °F 100% 29.68 in 5.0 mi ESE 4.6 mph - N/A   Overcast
12:55 AM 40.5 °F 37.3 °F 40.5 °F 100% 29.66 in 7.0 mi SE 4.6 mph - N/A   Overcast
1:15 AM 41.0 °F 39.0 °F 41.0 °F 100% 29.67 in 5.0 mi SE 3.5 mph - N/A   Overcast
1:36 AM 41.0 °F 38.0 °F 41.0 °F 100% 29.66 in 5.0 mi SSE 4.6 mph - N/A   Overcast
1:55 AM 41.2 °F - 41.2 °F 100% 29.66 in 7.0 mi Calm Calm - N/A   Overcast
2:15 AM 41.4 °F 38.4 °F 41.4 °F 100% 29.66 in 5.0 mi SSE 4.6 mph - N/A   Mostly Cloudy
2:35 AM 41.9 °F 37.5 °F 41.9 °F 100% 29.66 in 7.0 mi SSE 6.9 mph - N/A   Scattered Clouds
2:55 AM 42.3 °F 38.6 °F 42.3 °F 100% 29.66 in 5.0 mi SSE 5.8 mph - N/A   Clear
3:15 AM 41.7 °F 38.0 °F 41.7 °F 100% 29.65 in 5.0 mi SSE 5.8 mph - N/A   Clear
3:35 AM 42.6 °F 39.9 °F 42.6 °F 100% 29.65 in 5.0 mi SSE 4.6 mph - N/A   Clear
3:55 AM 42.8 °F 38.6 °F 42.8 °F 100% 29.63 in 7.0 mi SSE 6.9 mph - N/A   Clear
4:16 AM 43.0 °F 40.3 °F 43.0 °F 100% 29.62 in 7.0 mi South 4.6 mph - N/A   Clear
4:35 AM 43.3 °F 39.9 °F 43.2 °F 99% 29.61 in 7.0 mi SSE 5.8 mph - N/A   Clear
4:55 AM 43.3 °F 41.7 °F 43.2 °F 99% 29.62 in 7.0 mi South 3.5 mph - N/A   Clear
5:16 AM 42.8 °F 39.3 °F 42.8 °F 100% 29.60 in 7.0 mi SSE 5.8 mph - N/A   Clear
5:35 AM 43.0 °F 39.5 °F 42.8 °F 99% 29.60 in 7.0 mi SSE 5.8 mph - N/A   Clear
5:55 AM 42.4 °F 38.8 °F 42.3 °F 99% 29.60 in 7.0 mi SSE 5.8 mph - N/A   Clear
6:16 AM 42.3 °F 37.3 °F 42.1 °F 99% 29.59 in 7.0 mi SSE 8.1 mph - N/A   Clear
6:35 AM 42.6 °F 39.0 °F 42.4 °F 99% 29.60 in 7.0 mi SSE 5.8 mph - N/A   Clear
6:55 AM 42.8 °F 38.6 °F 42.8 °F 100% 29.60 in 7.0 mi SSE 6.9 mph - N/A   Clear
7:16 AM 42.4 °F 38.8 °F 42.3 °F 99% 29.60 in 7.0 mi SSE 5.8 mph - N/A   Clear
7:35 AM 41.9 °F 38.2 °F 41.7 °F 99% 29.60 in 7.0 mi SSE 5.8 mph - N/A   Clear
7:55 AM 41.7 °F 38.0 °F 41.5 °F 99% 29.60 in 7.0 mi SSE 5.8 mph - N/A   Clear
8:15 AM 44.4 °F 40.0 °F 44.1 °F 99% 29.60 in 10.0 mi South 8.1 mph - N/A   Clear
8:35 AM 45.7 °F 42.7 °F 44.1 °F 94% 29.61 in 10.0 mi South 5.8 mph - N/A   Clear
8:55 AM 44.4 °F 42.0 °F 43.2 °F 95% 29.61 in 10.0 mi SSE 4.6 mph - N/A   Clear
9:15 AM 44.6 °F 41.4 °F 43.5 °F 96% 29.62 in 10.0 mi South 5.8 mph - N/A   Clear
9:35 AM 46.4 °F 42.9 °F 44.6 °F 93% 29.62 in 10.0 mi South 6.9 mph - N/A   Clear
9:56 AM 47.8 °F - 44.8 °F 89% 29.62 in 10.0 mi SSW 8.1 mph - N/A   Scattered Clouds
10:15 AM 48.2 °F - 44.8 °F 88% 29.62 in 10.0 mi South 10.4 mph - N/A   Scattered Clouds
10:35 AM 48.7 °F - 44.6 °F 86% 29.62 in 10.0 mi SSW 11.5 mph - N/A   Scattered Clouds
10:56 AM 49.6 °F - 44.6 °F 83% 29.63 in 10.0 mi SSW 12.7 mph 20.7 mph N/A   Scattered Clouds
11:15 AM 50.9 °F - 44.1 °F 77% 29.63 in 10.0 mi SSW 10.4 mph - N/A   Mostly Cloudy
11:35 AM 51.4 °F - 43.5 °F 74% 29.62 in 10.0 mi SW 17.3 mph 24.2 mph N/A   Overcast
11:55 AM 51.6 °F - 41.5 °F 68% 29.62 in 10.0 mi SW 21.9 mph 32.2 mph N/A   Mostly Cloudy
12:15 PM 52.0 °F - 39.7 °F 63% 29.62 in 10.0 mi SW 19.6 mph 40.3 mph N/A   Scattered Clouds
12:35 PM 51.8 °F - 37.8 °F 59% 29.62 in 10.0 mi SW 24.2 mph 32.2 mph N/A   Clear
12:55 PM 52.0 °F - 37.4 °F 58% 29.62 in 10.0 mi SW 18.4 mph 28.8 mph N/A   Clear
1:15 PM 51.8 °F - 37.4 °F 58% 29.63 in 10.0 mi WSW 15.0 mph 26.5 mph N/A   Clear
1:35 PM 49.8 °F - 36.1 °F 59% 29.65 in 10.0 mi WSW 19.6 mph 32.2 mph N/A   Clear
1:55 PM 48.4 °F - 35.6 °F 61% 29.68 in 10.0 mi WSW 19.6 mph 32.2 mph N/A   Clear
2:16 PM 46.9 °F - 33.8 °F 60% 29.69 in 10.0 mi WSW 21.9 mph 38.0 mph N/A   Clear
2:35 PM 45.9 °F 38.5 °F 34.0 °F 63% 29.71 in 10.0 mi WSW 18.4 mph 29.9 mph N/A   Clear
2:55 PM 43.7 °F 34.5 °F 33.6 °F 68% 29.74 in 10.0 mi WSW 24.2 mph 34.5 mph N/A   Clear
3:15 PM 42.3 °F 33.1 °F 33.1 °F 70% 29.75 in 10.0 mi WSW 21.9 mph 32.2 mph N/A   Scattered Clouds
3:35 PM 41.5 °F 33.8 °F 33.1 °F 72% 29.77 in 10.0 mi WSW 15.0 mph 32.2 mph N/A   Scattered Clouds
3:55 PM 40.3 °F 31.6 °F 32.5 °F 74% 29.78 in 10.0 mi WSW 17.3 mph 26.5 mph N/A   Scattered Clouds
4:15 PM 39.9 °F 31.1 °F 31.6 °F 72% 29.79 in 10.0 mi WSW 17.3 mph 29.9 mph N/A   Scattered Clouds
4:36 PM 39.6 °F 31.7 °F 32.0 °F 74% 29.81 in 10.0 mi WSW 13.8 mph 25.3 mph N/A   Clear
4:55 PM 39.2 °F 30.2 °F 32.0 °F 75% 29.80 in 10.0 mi WSW 17.3 mph 32.2 mph N/A   Clear
5:16 PM 38.5 °F 29.6 °F 31.8 °F 77% 29.80 in 10.0 mi WSW 16.1 mph 25.3 mph N/A   Clear
5:35 PM 38.3 °F 29.3 °F 31.8 °F 77% 29.81 in 10.0 mi WSW 16.1 mph 21.9 mph N/A   Clear
5:55 PM 37.9 °F 28.9 °F 31.6 °F 78% 29.82 in 10.0 mi WSW 16.1 mph 23.0 mph N/A   Clear
6:15 PM 37.8 °F 28.3 °F 31.1 °F 77% 29.83 in 10.0 mi WSW 17.3 mph 24.2 mph N/A   Clear
6:35 PM 37.4 °F 28.2 °F 30.9 °F 77% 29.84 in 10.0 mi WSW 16.1 mph 26.5 mph N/A   Clear
6:55 PM 37.0 °F 28.5 °F 30.9 °F 79% 29.84 in 10.0 mi SW 13.8 mph 18.4 mph N/A   Clear
7:15 PM 37.4 °F 28.9 °F 31.1 °F 78% 29.86 in 10.0 mi SW 13.8 mph - N/A   Clear
7:35 PM 37.2 °F 30.6 °F 31.3 °F 79% 29.88 in 10.0 mi SW 9.2 mph 18.4 mph N/A   Scattered Clouds
7:55 PM 37.0 °F 28.1 °F 31.1 °F 79% 29.88 in 10.0 mi WSW 15.0 mph 20.7 mph N/A   Scattered Clouds
8:15 PM 36.7 °F 31.2 °F 29.5 °F 75% 29.87 in 10.0 mi WSW 6.9 mph 17.3 mph N/A   Clear
8:35 PM 36.1 °F 31.4 °F 29.3 °F 76% 29.86 in 10.0 mi West 5.8 mph - N/A   Clear
8:55 PM 35.8 °F 30.1 °F 29.1 °F 77% 29.85 in 10.0 mi WSW 6.9 mph - N/A   Scattered Clouds
9:15 PM 35.8 °F 30.1 °F 29.7 °F 78% 29.88 in 10.0 mi SW 6.9 mph - N/A   Mostly Cloudy
9:35 PM 35.8 °F 30.9 °F 29.8 °F 79% 29.87 in 10.0 mi WSW 5.8 mph - N/A   Overcast
9:55 PM 36.0 °F 29.6 °F 30.2 °F 80% 29.87 in 10.0 mi WSW 8.1 mph - N/A   Overcast
10:15 PM 36.0 °F 30.3 °F 30.2 °F 80% 29.88 in 10.0 mi WSW 6.9 mph - N/A   Overcast
10:35 PM 35.8 °F 31.9 °F 30.0 °F 80% 29.88 in 10.0 mi SW 4.6 mph - N/A   Overcast
10:55 PM 35.8 °F 29.4 °F 29.8 °F 79% 29.91 in 10.0 mi SW 8.1 mph - N/A   Overcast
11:15 PM 35.8 °F 31.9 °F 29.7 °F 78% 29.93 in 10.0 mi SSW 4.6 mph - N/A   Overcast
11:36 PM 35.8 °F 33.0 °F 29.3 °F 77% 29.91 in 10.0 mi SSW 3.5 mph - N/A   Overcast
11:55 PM 35.8 °F 30.9 °F 29.5 °F 78% 29.90 in 10.0 mi SW 5.8 mph - N/A   Overcast